Miscellaneous Local Product
Issued by NWS Hastings, NE

Home | Current Version | Previous Version | Text Only | Print | Product List | Glossary Off
Versions: 1 2 3 4 5 6 7 8 9 10 11 12 13 14 15 16 17 18 19 20 21 22 23 24 25 26 27 28 29 30 31 32 33 34 35 36 37 38 39 40 41 42 43 44 45 46 47 48 49 50

000
AXUS43 KGID 291502
MISGRI

GID CWA HOURLY WEATHER ROUNDUP
NATIONAL WEATHER SERVICE HASTINGS NE
1000 AM CDT WED MAR 29 2017

NOTE: "FAIR" INDICATES FEW OR NO CLOUDS BELOW 12,000 FEET WITH NO
SIGNIFICANT WEATHER AND/OR OBSTRUCTIONS TO VISIBILITY.

...SOUTH CENTRAL NEBRASKA...

CITY           SKY/WX    TMP DP  RH WIND       PRES   REMARKS
GRAND ISLAND   CLOUDY    44  44 100 NE20      29.98F
HASTINGS       CLOUDY    44  42  93 NE22      29.95F
KEARNEY        CLOUDY    43  39  87 N18       29.98S
ORD            CLOUDY    44  40  85 NE13G23   30.03S FOG
YORK           PTSUNNY   45  45 100 NE23      29.96F
AURORA         DRIZZLE   44  44 100 NE21G28   29.96F
LEXINGTON      CLOUDY    43  41  92 NE20      30.00S
HOLDREGE       CLOUDY    42  41  95 NE17      29.96S FOG
HEBRON         LGT RAIN  46  45  97 NE18G24   29.89F

...NEBRASKA PANHANDLE...

CITY           SKY/WX    TMP DP  RH WIND       PRES   REMARKS
CHADRON        CLOUDY    44  39  82 W3        30.11S
ALLIANCE       CLOUDY    41  38  89 N6        30.10R
SCOTTSBLUFF    CLOUDY    43  39  86 NW9       30.11S
SIDNEY         CLOUDY    39  37  92 N13       30.10S WCI  31

...WESTERN AND NORTH CENTRAL NEBRASKA...

CITY           SKY/WX    TMP DP  RH WIND       PRES   REMARKS
VALENTINE      CLOUDY    46  41  82 N7        30.11S
AINSWORTH      CLOUDY    43  43 100 N13G18    30.10S
ONEILL         CLOUDY    44  43  97 N10       30.08F
BROKEN BOW     LGT RAIN  44  40  85 N17G25    30.02S
IMPERIAL       CLOUDY    42  39  89 N17       30.06R
NORTH PLATTE   CLOUDY    43  40  89 N14G26    30.04S
MCCOOK         CLOUDY    43  42  97 N21G26    29.99S

...EASTERN NEBRASKA...

CITY           SKY/WX    TMP DP  RH WIND       PRES   REMARKS
NORFOLK        CLOUDY    44  41  89 NE16G25   30.03F
SO SIOUX CITY  LGT RAIN  45  44  97 NE12      30.08F
TEKAMAH        LGT RAIN  45  41  86 NE14      30.04S
COLUMBUS       CLOUDY    45  41  87 NE18      30.01F
ALBION         CLOUDY    45  42  88 NE14      30.03S FOG
OMAHA EPPLEY   LGT RAIN  45  40  82 NE18      30.01S
MILLARD        LGT RAIN  47  44  91 E9        30.00S
LINCOLN        LGT RAIN  46  44  93 NE18G25   29.97F FOG
NEBRASKA CITY  LGT RAIN  44  44 100 NE18G24   29.93F
BEATRICE       LGT RAIN  46  46  98 NE16G22   29.89F
FALLS CITY     LGT RAIN  47  46  97 NE20      29.87F

...NORTHERN KANSAS...

CITY           SKY/WX    TMP DP  RH WIND       PRES   REMARKS
GOODLAND       LGT RAIN  40  39  97 N20G26    29.98S FOG     WCI  30
HILL CITY      LGT RAIN  44  43  96 NE21G30   29.91S FOG
NORTON         DRIZZLE   43  39  87 N16G23    29.93F
PHILLIPSBURG   DRIZZLE   45  45 100 N17       29.92S
HAYS             N/A     45  44  97 N25       29.81F FOG
RUSSELL        RAIN      46  44  93 N24G36    29.78S
CONCORDIA      RAIN      46  45  96 NE22G30   29.82F FOG
SALINA         LGT RAIN  49  47  93 N23G29    29.72F
TOPEKA         RAIN      50  50 100 E16G24    29.75F FOG



USA.gov is the U.S. government's official web portal to all federal, state and local government web resources and services.